CZ-4B DEB, 43430

Orbit data source: Space-Track

CZ-4B DEB, 43430 is space debris in LEO originally from a launch on Thu, 15 Jun 2017 UTC launched from the Jiuquan Satellite Launch Center, China (JSC). Debris objects in space refer to the collection of defunct objects orbiting the Earth. Examples of debris include non-operational satellites, rocket bodies, and fragments generated from explosions, collisions, or faulty payload assembly.

Loading next visibility...
CZ-4B DEB details
Identifier
43430, 2017-034F
Orbit
LEO
Last TLE update1 day ago
Origin
Flag of CNCNSA (CN / PRC)
ManufacturerSAST
MissionSpacecraft
Bus & MotorUnknown
MassUnknown
Launch date (UTC)
2017-06-15 (8 years ago)
Launch vehicleUnknown
Launch site
Jiuquan Satellite Launch Center, China (JSC)
Object type
Payload
Rocket body
Debris
Shape & HBRUnknown
Radar Cross SectionSmall (<0.1 m²)

Expand to show TLE details & history

TLE from 1 day ago
0 CZ-4B DEB
1 43430U 17034F   24360.51933425  .00031415  00000-0  32500-2 0  9992
2 43430  42.9983  84.6280 0158791 152.9038 208.0193 14.80655333396052
Epoch: 2024-12-25T12:27Z
Definitive object data (Epoch: 2024-12-25T12:27:50.479Z)
Latitude-0.00002°
Longitude163.15573°
Altitude725.606 km
Speed7.441 km/s
True Right ascension05h 38m 30s
True Declination0° 00' 00"
Sunlit
Object was in full shadow at TLE epoch
Visualization TLE readout
Latitude-43.10131°
Longitude62.72144°
Altitude670.417 km
Speed7.506 km/s
Apparent Right ascension03h 09m 00s
Apparent Declination-65° 31' 45"
Sunlit
Object is in daylight
Visualization observer readout
Local Sidereal Time19:47:49
Azimuth147.331° SSE
Elevation-43.967°
Doppler factor1
Orbital elements
Apogee altitude740.432 km
Perigee altitude517.893 km
Semi-major axis7,007.3 km
Eccentricity0.0158791
Inclination42.9983°
RAAN84.628°
Arg. of periapsis152.9038°
True anomaly207.17926°
Mean anomaly208.0193°
Eccentric anomaly207.59782°
Mean motion3.70013 °/min
BSTAR0.00325
Orbital period97.29 mins
Loading maneuver chart data...
Loading historical data...
Loading historical data...
Loading historical data...
Loading historical data...
Loading historical data...
Loading historical data...
Loading historical data...

CZ-4B DEB Visibility forecast

Observer location: undefined°, undefined

Span
Click to sort rows by Start time (UTC) header in descending order
Start Az.
Max El. time (UTC)
Max El. Az.
Max El.
End time (UTC)
End Az.
8 mins2024-12-27 08:21:59.631Z212.205° SW2024-12-27 08:25:59.631Z144.112° SSE31.22°2024-12-27 08:29:59.631Z82.4° E
7 mins2024-12-27 10:04:59.631Z260.285° W2024-12-27 10:07:59.631Z357.673° N44.334°2024-12-27 10:11:59.631Z71.309° E
7 mins2024-12-27 11:46:59.631Z286.789° WNW2024-12-27 11:49:59.631Z338.506° N39.255°2024-12-27 11:53:59.631Z80.88° E
6 mins2024-12-27 13:29:59.631Z284.852° WNW2024-12-27 13:32:59.631Z155.708° SSE43.501°2024-12-27 13:35:59.631Z116.959° SE
4 mins2024-12-27 15:12:59.631Z243.041° WSW2024-12-27 15:13:59.631Z224.802° SW17.596°2024-12-27 15:16:59.631Z174.42° S
|